Location: Cahas Mountain Overlook
(37.0833°N, 80.1000°W)
Time: 08:05:54
(UTC-04:00)

Tiros 1 - Pass Details

Date: 16 February 2026
Orbit: 618 x 650 km, 48.4° (Epoch: 14 March)

Event Time Altitude Azimuth Distance (km) Brightness Sun altitude
Rises 12:33:55 0° 299° (WNW) 2,893 10.3 40.8°
Reaches altitude 10° 12:36:48 10° 317° (NW) 1,983 9.4 40.8°
Maximum altitude 12:40:07 19° 4° (N) 1,457 8.7 40.8°
Drops below altitude 10° 12:43:26 10° 51° (NE) 1,977 9.4 40.7°
Sets 12:46:18 0° 69° (ENE) 2,882 10.3 40.7°
